Regional Weather Roundup
Issued by NWS Newport/Morehead, NC

Current Version | Previous Version | Text Only | Print | Product List | Glossary Off
Versions: 1 2 3 4 5 6 7 8 9 10 11 12 13 14 15 16 17 18 19 20 21 22 23 24 25 26 27 28 29 30 31 32 33 34 35 36 37 38 39 40 41 42 43 44 45 46 47 48 49 50
000 ASUS42 KMHX 250625 RWRMHX WEATHER ROUNDUP FOR EASTERN NORTH CAROLINA NATIONAL WEATHER SERVICE NEWPORT/MOREHEAD CITY NC 200 AM EDT SUN JUN 25 2017 NOTE: "FAIR" INDICATES FEW OR NO CLOUDS BELOW 12,000 FEET WITH NO SIGNIFICANT WEATHER AND/OR OBSTRUCTIONS TO VISIBILITY NCZ015>017-031-032-045>047-102-103-250700- NORTH COAST CITY SKY/WX TMP DP RH WIND PRES REMARKS EDENTON CLOUDY 76 73 90 CALM 29.99F ELIZABETH CITY MOCLDY 72 72 100 SW5 29.98S KITTY HAWK MOCLDY 75 75 100 SW6 29.97R MANTEO CLOUDY 74 73 96 W8 29.98S $$ NCZ045>047-081-094-103-104-250700- CENTRAL COAST CITY SKY/WX TMP DP RH WIND PRES REMARKS FRISCO LGT RAIN 76 74 93 SW12 29.99F FOG $$ NCZ095-097-098-100-101-250700- SOUTHERN COAST CITY SKY/WX TMP DP RH WIND PRES REMARKS BEAUFORT CLOUDY 76 76 100 SW14 29.99F CEDAR ISLAND NOT AVBL JACKSONVILLE CLOUDY 75 75 100 SW7 30.00F PINEY ISLAND CLOUDY N/A N/A N/A SW7 30.00S WILMINGTON CLOUDY 77 77 100 SW6 30.02F $$ NCZ011>013-027>030-043-044-078>080-089-090>093-098-250700- COASTAL PLAIN CITY SKY/WX TMP DP RH WIND PRES REMARKS AHOSKIE N/A 70 69 98 CALM 30.00S CLINTON CLOUDY 73 73 100 CALM 30.01F ELIZABETHTOWN NOT AVBL GOLDSBORO CLOUDY 73 73 100 CALM 30.00S GREENVILLE CLOUDY 73 73 100 SW6 30.02S HAVELOCK RAIN 75 73 93 SW7 30.01S KENANSVILLE CLOUDY 73 72 94 CALM 30.01F KINSTON CLOUDY 74 74 98 CALM 30.02F NEW BERN CLOUDY 74 74 100 SW5 30.02S RICHLANDS CLOUDY 74 74 100 SW5 30.02F ROCKY MOUNT CLOUDY 71 71 100 CALM 30.01S WASHINGTON CLOUDY N/A N/A N/A SW6 30.00F HAZE WHITEVILLE PTCLDY 76 75 94 S5 30.02F $$ AMZ130-135-150-152-154-156-158-170-250-252-270-ANZ085-086-088-633-658-670-250700- MARINE OBSERVATIONS STATION/POSITION TIME TEMP WIND PRES WAVE SWELL AIR SEA DIR/SP/G HT/PER HT/PER (UTC) (F) (DEG/KT/KT) (MB) (FT/S) (FT/S) CHESAPEAKE LIGHT NOT AVBL 64 E VA BEACH 0550 73 72 240/ 6/ 10 1015.2 5/ 7 3/ 7 DUCK 0600 76 62 240/ 5/ 8 1014.6 2 E DUCK NOT AVBL OREGON INLET 0600 76 76 240/ 13/ 15 1014.9 13E OREGON INLT 0548 74 N/A 4/ 7 3/ 7 HATTERAS CG 0600 75 79 240/ 9/ 13 1015.3 DIAMOND BUOY 0550 77 80 240/ 14/ 16 1016.1 6/ 7 3/ 7 CAPE LOOKOUT 0600 75 220/ 9/ 12 1015.7 BEAUFORT LAB 0600 76 78 220/ 6/ 11 1015.2 30 SE NEW RVR IN 0608 76 80 280/ 16/ 25 1017.6 30 SE NEW RVR IN 0543 80 N/A 6/ 6 27 SE WRIGHTSVLE 0608 77 80 220/ 19/ 27 1015.8 5 SE WRIGHTSVLE 0608 79 79 220/ 10/ 16 1016.5 225 S CAPE HAT 0550 81 80 200/ 14/ 16 1019.7 4/ 6 2/ 7 41 SE CHARLESTON 0610 81 240/ 14/ 17 1017.5 $$

USA.gov is the U.S. government's official web portal to all federal, state and local government web resources and services.